Stations météo

Publicité
Gourdon, France (7535): Température de l'air & dewpoint: 09.11.2019 16:00:00 - 15.11.2019 16:00:00 (CET)Gourdon, France (7535): Température de l'air 5cm: 09.11.2019 16:00:00 - 15.11.2019 16:00:00 (CET)Gourdon, France (7535): Température de l'air -20cm & Température de l'air -100cm: 09.11.2019 16:00:00 - 15.11.2019 16:00:00 (CET)Gourdon, France (7535): Vitesse du vent & gusts: 09.11.2019 16:00:00 - 15.11.2019 16:00:00 (CET)Gourdon, France (7535): Direction du vent: 09.11.2019 16:00:00 - 15.11.2019 16:00:00 (CET)Gourdon, France (7535): reduced air pressure: 09.11.2019 16:00:00 - 15.11.2019 16:00:00 (CET)Gourdon, France (7535): visibility: 09.11.2019 16:00:00 - 15.11.2019 16:00:00 (CET)Gourdon, France (7535): Ensoleillement: 09.11.2019 16:00:00 - 15.11.2019 16:00:00 (CET)Gourdon, France (7535): Quantités de précipitations: 09.11.2019 16:00:00 - 15.11.2019 16:00:00 (CET)
Date & Time tt [°C] td [°C] tt 5cm [°C] tt -20cm [°C] tt -100cm [°C] ff [km/h] ff [knt] fx [km/h] fx [knt] dd ppp [hPa] vv [km] sd [min] rr [mm]
15.11.2019 16:00:00 4,0 3,0 4,7 9,8 13,6 5 3 13 7 NW 1002,1 18 0 0,2
15.11.2019 15:00:00 4,4 3,2 5,3 9,8 13,6 5 3 11 6 NW 1001,5 19 0 0,4
15.11.2019 14:00:00 4,9 3,9 4,8 9,8 13,7 5 3 19 10 W 1001,2 20 0 1,4
15.11.2019 13:00:00 5,2 4,0 5,3 9,7 13,7 6 3 16 9 SSW 1000,9 11 0 1,2
15.11.2019 12:00:00 5,3 4,1 5,1 9,7 13,7 5 3 15 8 S 1001,0 12 0 0,4
15.11.2019 11:00:00 5,2 3,4 4,9 9,7 13,7 8 5 18 10 SE 1000,6 20 0 0,0
15.11.2019 10:00:00 4,8 3,5 4,5 9,7 13,7 9 5 16 9 SSE 1000,6 20 0 0,0
15.11.2019 09:00:00 4,4 3,4 4,1 9,7 13,7 8 4 18 10 SSE 1000,4 20 0 0,0
15.11.2019 08:00:00 4,2 3,3 3,6 9,8 13,7 9 5 16 9 S 1000,0 20 0 0,0
15.11.2019 07:00:00 4,1 3,2 3,8 9,8 13,7 6 3 13 7 SSW 999,6 20 0 0,0
15.11.2019 06:00:00 4,1 3,2 3,9 9,8 13,7 7 4 16 9 S 999,4 20 0 0,0
15.11.2019 05:00:00 4,0 3,3 3,8 9,9 13,7 8 5 16 8 S 999,2 20 0 0,0
15.11.2019 04:00:00 4,0 3,3 3,9 9,9 13,7 9 5 18 10 SSW 999,2 20 0 0,0
15.11.2019 03:00:00 4,0 3,4 3,4 10,0 13,7 7 4 14 8 SSW 999,2 20 0 0,0
15.11.2019 02:00:00 3,6 3,0 1,2 10,0 13,7 4 2 10 5 SSW 998,8 10 0 0,0
15.11.2019 01:00:00 4,2 3,5 4,1 10,1 13,7 5 3 13 7 SSW 999,1 20 0 0,0
15.11.2019 00:00:00 4,3 3,9 3,5 10,2 13,8 8 4 15 8 SSW 998,9 20 0 0,0
14.11.2019 23:00:00 3,7 3,3 2,3 10,2 13,8 7 4 13 7 S 998,6 9 0 0,0
14.11.2019 22:00:00 3,8 3,2 1,6 10,3 13,8 6 3 10 5 S 998,4 19 0 0,0
14.11.2019 21:00:00 4,4 3,5 3,5 10,3 13,8 4 2 12 6 E 998,2 20 0 0,0
14.11.2019 20:00:00 4,6 3,9 4,0 10,4 13,8 8 4 16 8 SSE 998,4 18 0 0,4
14.11.2019 19:00:00 4,4 3,7 2,9 10,4 13,8 5 3 12 7 ESE 998,7 20 0 0,0
14.11.2019 18:00:00 5,5 4,1 5,1 10,3 13,8 2 1 13 7 SSW 998,0 12 0 1,0
14.11.2019 17:00:00 6,0 4,2 5,5 10,3 13,8 5 3 17 9 SSE 998,2 12 3 0,2
14.11.2019 16:00:00 7,1 3,7 7,6 10,3 13,8 10 5 20 11 S 998,0 20 41 0,0
14.11.2019 15:00:00 6,4 3,9 7,1 10,2 13,8 11 6 22 12 SSW 998,4 20 0 0,0
14.11.2019 14:00:00 6,1 3,9 7,0 10,2 13,8 10 6 26 14 SSW 998,5 20 0 0,0
14.11.2019 13:00:00 6,1 4,3 6,9 10,2 13,9 14 8 32 17 S 998,9 20 0 0,0
14.11.2019 12:00:00 5,9 4,1 6,1 10,2 13,9 17 9 32 17 SSW 999,8 20 0 0,0
14.11.2019 11:00:00 5,4 3,9 5,2 10,2 13,9 14 8 26 14 S 1000,8 20 0 0,0
14.11.2019 10:00:00 5,1 3,4 4,7 10,3 13,9 14 8 27 14 S 1000,9 20 0 0,0
14.11.2019 09:00:00 5,1 3,4 4,6 10,3 13,9 16 8 24 13 S 1001,0 20 0 0,0
14.11.2019 08:00:00 5,2 4,0 4,7 10,4 13,9 14 7 29 16 S 1001,0 20 0 0,0
14.11.2019 07:00:00 5,5 4,0 4,9 10,4 13,9 16 9 40 22 S 1001,0 20 0 0,2
14.11.2019 06:00:00 5,7 4,2 5,1 10,4 13,9 14 8 28 15 S 1000,7 20 0 0,0
14.11.2019 05:00:00 5,8 4,4 5,3 10,5 13,9 13 7 25 14 SSW 1000,4 20 0 0,2
14.11.2019 04:00:00 6,0 5,0 5,4 10,6 13,9 5 3 25 14 WSW 1000,6 14 0 2,4
14.11.2019 03:00:00 6,0 4,5 5,3 10,6 13,9 18 10 48 26 SSW 1000,5 15 0 1,2
14.11.2019 02:00:00 6,9 3,5 5,8 10,7 13,9 26 14 52 28 SSE 999,5 20 0 0,0
14.11.2019 01:00:00 6,7 3,7 5,8 10,7 13,9 20 11 36 19 SSE 1001,0 20 0 0,0
14.11.2019 00:00:00 6,9 3,7 6,2 10,8 13,9 22 12 36 20 S 1002,4 20 0 0,0
13.11.2019 23:00:00 6,9 3,9 5,8 10,9 13,9 17 9 31 17 SSE 1004,0 20 0 0,0
13.11.2019 22:00:00 6,5 3,3 4,9 11,0 13,9 13 7 24 13 S 1005,9 20 0 0,0
13.11.2019 21:00:00 6,0 2,8 4,8 11,0 13,9 14 8 24 13 S 1007,1 20 0 0,0
13.11.2019 20:00:00 6,6 2,9 5,3 11,0 13,9 12 7 23 12 S 1008,3 20 0 0,0
13.11.2019 19:00:00 6,0 3,3 5,3 11,1 13,9 9 5 14 7 S 1009,3 20 0 0,0
13.11.2019 18:00:00 6,1 3,4 5,4 11,0 13,9 5 3 8 4 SSE 1009,6 20 2 0,0
13.11.2019 17:00:00 7,8 3,5 8,5 11,0 13,9 2 1 13 7 S 1009,8 20 17 0,0
13.11.2019 16:00:00 9,0 1,4 10,6 10,9 13,9 8 4 19 10 WNW 1010,1 20 47 0,0
13.11.2019 15:00:00 8,5 2,5 12,6 10,7 14,0 6 3 15 8 WNW 1010,2 20 55 0,0
13.11.2019 14:00:00 8,1 4,5 15,2 10,6 14,0 5 3 13 7 NNE 1010,2 20 55 0,0
13.11.2019 13:00:00 6,4 4,4 9,2 10,5 14,0 6 3 15 8 W 1011,0 20 24 0,0
13.11.2019 12:00:00 5,3 4,3 6,7 10,5 14,0 5 3 14 7 WNW 1010,8 19 1 0,0
13.11.2019 11:00:00 5,2 4,5 6,2 10,5 14,0 5 3 12 6 NW 1010,7 13 0 0,0
13.11.2019 10:00:00 5,0 4,4 5,9 10,5 14,0 4 2 8 4 NW 1010,4 13 0 0,0
13.11.2019 09:00:00 4,9 4,5 5,0 10,5 14,0 5 3 8 4 NNW 1009,6 0,5 0 0,0
13.11.2019 08:00:00 5,1 4,7 5,4 10,5 14,1 4 2 8 5 N 1008,6 1,2 0 0,0
13.11.2019 07:00:00 5,4 5,1 5,5 10,6 14,1 5 3 12 7 N 1008,1 5 0 0,0
13.11.2019 06:00:00 5,8 5,4 5,8 10,5 14,1 4 2 8 5 N 1007,2 1,4 0 0,0
13.11.2019 05:00:00 6,2 5,9 6,1 10,6 14,1 3 2 8 5 WNW 1007,3 0,2 0 0,0
13.11.2019 04:00:00 6,3 5,9 6,3 10,6 14,1 2 1 6 3 NW 1006,8 0,5 0 0,0
13.11.2019 03:00:00 6,6 6,3 6,0 10,6 14,1 3 2 8 4 NNW 1006,7 0,2 0 0,0
13.11.2019 02:00:00 6,6 6,2 6,3 10,6 14,1 0 0 5 3 N 1006,5 0,3 0 0,0
13.11.2019 01:00:00 6,9 6,6 6,2 10,7 14,1 3 2 7 4 NNW 1006,8 2,1 0 0,0
13.11.2019 00:00:00 6,8 6,5 5,9 10,7 14,1 2 1 10 5 ENE 1007,0 0,7 0 0,0
12.11.2019 23:00:00 6,5 6,1 4,0 10,7 14,1 4 2 9 5 WNW 1007,7 0,6 0 0,0
12.11.2019 22:00:00 6,7 6,3 3,5 10,8 14,2 3 2 8 5 WSW 1007,9 1,8 0 0,0
12.11.2019 21:00:00 7,3 6,7 6,3 10,8 14,2 3 2 12 6 SW 1007,7 2,8 0 1,0
12.11.2019 20:00:00 7,0 6,6 5,1 10,9 14,2 5 3 8 5 S 1007,7 10 0 0,0
12.11.2019 19:00:00 6,5 5,9 4,2 10,9 14,2 5 3 8 4 S 1008,3 4,9 0 0,0
12.11.2019 18:00:00 7,1 5,7 4,1 10,8 14,2 3 2 7 4 SSW 1008,7 9 0 0,0
12.11.2019 17:00:00 8,8 7,1 9,0 10,7 14,2 4 2 9 5 WSW 1008,8 20 0 0,0
12.11.2019 16:00:00 9,3 6,9 9,8 10,6 14,2 3 2 11 6 WSW 1009,4 20 0 0,0
12.11.2019 15:00:00 9,9 7,0 11,6 10,4 14,2 4 2 17 9 W 1010,0 20 3 0,0
12.11.2019 14:00:00 10,0 6,9 11,8 10,2 14,3 6 3 16 9 W 1010,4 20 4 0,0
12.11.2019 13:00:00 9,7 8,0 10,4 10,1 14,3 7 4 13 7 W 1011,0 20 16 0,0
12.11.2019 12:00:00 8,4 7,8 8,4 10,0 14,3 3 1 15 8 W 1012,1 17 0 0,4
12.11.2019 11:00:00 7,8 7,4 7,8 10,0 14,3 5 3 15 8 SW 1012,4 17 6 0,0
12.11.2019 10:00:00 6,7 6,4 6,3 10,0 14,3 5 3 13 7 SW 1012,7 9 3 0,0
12.11.2019 09:00:00 5,6 5,3 5,1 10,0 14,3 4 2 19 10 SW 1013,2 6 0 0,0
12.11.2019 08:00:00 5,0 4,7 3,8 10,0 14,3 9 5 16 9 S 1013,0 5 0 0,2
12.11.2019 07:00:00 4,9 4,6 3,7 10,1 14,3 5 3 12 6 SSW 1013,6 4,1 0 0,2
12.11.2019 06:00:00 4,3 4,0 2,0 10,1 14,4 6 3 10 5 S 1014,0 11 0 0,0
12.11.2019 05:00:00 3,9 3,5 2,6 10,2 14,4 8 4 10 5 S 1014,3 9 0 0,0
12.11.2019 04:00:00 3,7 3,4 2,5 10,3 14,4 6 3 11 6 SSE 1014,7 6 0 0,0
12.11.2019 03:00:00 3,1 2,8 1,1 10,3 14,4 6 3 9 5 SSE 1015,3 3,1 0 0,0
12.11.2019 02:00:00 2,3 1,9 0,4 10,5 14,4 6 4 14 8 SSE 1016,0 6 0 0,0
12.11.2019 01:00:00 2,4 1,8 0,5 10,6 14,4 7 4 9 5 SSE 1016,4 0,9 0 0,0
12.11.2019 00:00:00 3,8 3,4 0,4 10,6 14,4 3 2 8 4 SW 1016,9 4,6 0 0,0
11.11.2019 23:00:00 4,3 3,6 2,3 10,7 14,5 3 2 12 6 SSW 1016,7 0,8 0 0,0
11.11.2019 22:00:00 5,1 4,4 3,9 10,8 14,5 4 2 12 6 W 1016,4 10 0 0,0
11.11.2019 21:00:00 5,9 5,0 4,5 10,8 14,5 3 2 21 11 W 1015,6 9 0 0,0
11.11.2019 20:00:00 6,8 6,1 5,9 10,8 14,5 10 5 31 17 WNW 1015,0 16 0 0,0
11.11.2019 19:00:00 7,8 7,0 7,5 10,7 14,5 11 6 30 16 NW 1013,5 20 0 0,2
11.11.2019 18:00:00 8,0 7,4 7,8 10,7 14,5 5 3 17 9 WSW 1012,0 2,2 0 0,4
11.11.2019 17:00:00 7,9 7,3 7,7 10,6 14,5 10 5 16 9 SSW 1011,4 6 0 2,0
11.11.2019 16:00:00 8,1 6,9 7,9 10,5 14,6 8 4 19 10 S 1011,4 7 0 1,0
11.11.2019 15:00:00 8,9 6,7 9,0 10,4 14,6 9 5 17 9 S 1011,1 20 0 0,0
11.11.2019 14:00:00 7,6 5,9 8,2 10,3 14,6 9 5 16 9 S 1011,8 20 0 0,0
11.11.2019 13:00:00 6,9 5,4 7,6 10,2 14,6 9 5 18 10 S 1012,9 19 0 0,0
11.11.2019 12:00:00 6,0 5,0 6,8 10,1 14,6 9 5 22 12 S 1013,6 20 1 0,0
11.11.2019 11:00:00 5,1 4,4 6,1 10,1 14,6 14 8 23 12 S 1014,3 20 2 0,0
11.11.2019 10:00:00 4,9 4,2 4,4 10,1 14,6 12 6 20 11 SSE 1014,6 20 30 0,0
11.11.2019 09:00:00 3,6 3,2 2,7 10,2 14,7 10 5 14 8 SE 1015,6 20 0 0,0
11.11.2019 08:00:00 3,4 3,0 2,7 10,2 14,7 7 4 11 6 SE 1015,7 20 0 0,0
11.11.2019 07:00:00 3,1 2,8 1,7 10,3 14,7 3 2 12 7 S 1015,8 18 0 0,0
11.11.2019 06:00:00 1,9 1,6 1,0 10,4 14,7 8 4 12 6 SE 1016,0 7 0 0,0
11.11.2019 05:00:00 1,3 0,9 -0,1 10,5 14,7 5 3 10 6 ESE 1017,1 11 0 0,0
11.11.2019 04:00:00 1,4 1,1 0,1 10,6 14,7 7 4 11 6 SE 1017,1 12 0 0,0
11.11.2019 03:00:00 1,3 0,9 0,2 10,7 14,7 9 5 11 6 SE 1017,2 0,8 0 0,0
11.11.2019 02:00:00 1,7 1,4 0,0 10,8 14,7 8 4 14 8 SE 1017,6 9 0 0,0
11.11.2019 01:00:00 1,1 0,7 -0,6 11,0 14,7 5 3 10 5 SSE 1018,3 12 0 0,0
11.11.2019 00:00:00 1,5 1,1 -0,5 11,1 14,7 5 3 12 7 S 1017,8 15 0 0,0
10.11.2019 23:00:00 1,4 1,0 -0,2 11,3 14,8 4 2 10 5 SSE 1017,0 14 0 0,0
10.11.2019 22:00:00 1,5 0,9 0,3 11,3 14,8 8 4 10 6 SE 1017,3 12 0 0,0
10.11.2019 21:00:00 2,5 1,9 1,1 11,4 14,8 8 4 10 6 SE 1017,4 1,6 0 0,0
10.11.2019 20:00:00 3,9 3,2 2,5 11,5 14,8 3 2 9 5 SE 1017,0 10 0 0,0
10.11.2019 19:00:00 4,6 3,6 2,9 11,5 14,8 6 3 10 5 SE 1016,2 20 0 0,0
10.11.2019 18:00:00 5,5 2,8 4,0 11,5 14,8 6 3 30 16 SE 1015,6 20 0 3,2
10.11.2019 17:00:00 8,6 3,4 9,1 11,4 14,8 3 2 6 4 NE 1014,2 20 17 0,0
10.11.2019 16:00:00 10,0 3,7 14,0 11,3 14,8 4 2 17 9 N 1013,2 20 60 0,0
10.11.2019 15:00:00 11,1 3,4 14,5 11,1 14,8 3 2 10 5 W 1012,5 20 52 0,0
10.11.2019 14:00:00 9,8 3,3 10,3 11,0 14,9 4 2 10 5 W 1012,6 20 21 0,0
10.11.2019 13:00:00 7,9 4,5 11,0 11,0 14,9 0 0 12 7 N 1013,0 20 13 0,0
10.11.2019 12:00:00 8,4 4,2 10,7 10,9 14,9 6 3 12 7 WNW 1013,2 20 27 0,0
10.11.2019 11:00:00 7,7 5,0 10,3 10,9 14,9 5 3 12 7 SSW 1013,0 20 50 0,0
10.11.2019 10:00:00 5,7 4,5 5,3 11,0 14,9 7 4 14 7 SSW 1012,9 20 51 0,0
10.11.2019 09:00:00 3,9 3,5 1,3 11,1 14,9 6 3 9 5 S 1012,7 20 25 0,0
10.11.2019 08:00:00 2,5 2,1 0,5 11,3 14,9 6 4 11 6 S 1012,5 18 0 0,0
10.11.2019 07:00:00 2,1 1,4 0,0 11,4 14,9 4 2 10 5 S 1012,3 0,6 0 0,0
10.11.2019 06:00:00 3,2 2,5 0,3 11,5 14,9 4 2 9 5 SW 1011,8 16 0 0,0
10.11.2019 05:00:00 3,5 2,6 0,8 11,6 14,9 4 2 9 5 SSW 1011,5 20 0 0,0
10.11.2019 04:00:00 4,2 3,3 2,1 11,7 15,0 4 2 10 5 SW 1011,6 20 0 0,0
10.11.2019 03:00:00 4,8 3,8 3,3 11,8 15,0 4 2 12 7 WSW 1011,6 20 0 0,0
10.11.2019 02:00:00 5,7 4,5 4,1 11,9 15,0 3 2 16 8 W 1011,3 20 0 0,0
10.11.2019 01:00:00 5,9 4,7 4,6 12,0 15,0 8 4 20 11 W 1010,9 20 0 0,0
10.11.2019 00:00:00 6,9 5,5 5,9 12,0 15,0 5 3 21 11 W 1010,1 20 0 0,0
09.11.2019 23:00:00 7,7 6,3 7,2 12,0 15,0 7 4 19 10 W 1010,0 20 0 0,0
09.11.2019 22:00:00 8,0 6,6 7,5 12,0 15,0 6 4 39 21 W 1009,1 20 0 0,0
09.11.2019 21:00:00 8,2 7,3 7,4 12,1 15,0 16 9 39 21 SSW 1008,3 6 0 0,4
09.11.2019 20:00:00 7,7 6,8 7,2 12,1 15,0 16 9 27 14 S 1008,7 9 0 1,6
09.11.2019 19:00:00 7,9 6,4 7,2 12,2 15,0 13 7 35 19 S 1009,3 10 0 0,0
09.11.2019 18:00:00 8,7 4,9 8,1 12,2 15,1 11 6 18 10 SSE 1009,3 20 0 0,0
09.11.2019 17:00:00 9,1 4,9 8,5 12,1 15,1 10 5 22 12 S 1010,5 20 32 0,0
09.11.2019 16:00:00 10,3 4,6 12,0 11,9 15,1 13 7 23 12 SSW 1011,3 20 42 0,0

tt = Température de l'air
td = dewpoint
tt 5cm = Température de l'air 5cm
tt -20cm = Température de l'air -20cm
tt -100cm = Température de l'air -100cm
ff = Vitesse du vent
fx = gusts
dd = Direction du vent
ppp = reduced air pressure
vv = visibility
sd = Ensoleillement
rr = Quantités de précipitations

stations d'obs. à proximité